[[{"header":{"parameterUnit":"m.s-1","parameterCategory":1,"la1":30.2992,"la2":30.254,"lo1":-89.0895,"lo2":-89.0443,"dy":0.0025,"dx":0.0025,"nx":19,"ny":19,"refTime":"2026-04-23T03:00:00:Z","depth":0,"parameterNumber":2,"parameterNumberName":"U-component_of_WINDS"},"data":[0,0,0,-3.7149,-3.7151,-3.726,-3.7261,-3.7402,-3.7403,0,0,0,0,0,0,0,0,0,0,0,-3.7118,-3.7119,-3.7149,-3.7151,-3.726,-3.7261,-3.7401,-3.7403,0,0,0,0,0,0,0,0,0,0,0,-3.7117,-3.7118,-3.712,-3.7152,-3.726,-3.7261,-3.7401,-3.7318,0,0,0,0,0,0,0,0,0,0,-3.7212,-3.7184,-3.7118,-3.712,-3.7152,-3.726,-3.7261,-3.7314,-3.7323,-3.7353,0,-3.738,0,-3.7393,-3.7412,-3.7413,0,0,0,-3.7151,-3.7177,-3.7205,-3.712,-3.7154,-3.726,-3.7211,-3.7319,-3.733,-3.7365,-3.7382,-3.7387,-3.7396,-3.7413,-3.7414,-3.7587,-3.7588,0,0,-3.7145,-3.7138,-3.7198,-3.7212,-3.7195,-3.7207,-3.7214,-3.7326,-3.7343,-3.7382,-3.739,-3.7398,-3.7414,-3.7415,-3.7586,-3.7587,0,0,0,-3.7128,-3.7134,-3.7159,-3.7206,-3.7226,-3.7211,-3.7218,-3.7338,-3.7347,-3.7392,-3.74,-3.7415,-3.7417,-3.7585,-3.7587,-3.7621,0,0,0,-3.7124,-3.7124,-3.7157,-3.7154,-3.7224,-3.7283,-3.7228,-3.7339,-3.7352,-3.7399,-3.7415,-3.7418,-3.7584,-3.7586,-3.7618,-3.7637,0,0,0,-3.711,-3.7122,-3.7138,-3.7153,-3.72,-3.7282,-3.7297,-3.7342,-3.7357,-3.7413,-3.7419,-3.7584,-3.7586,-3.7615,-3.7633,-3.768,0,0,0,-3.7093,-3.7168,-3.7139,-3.7225,-3.7199,-3.7302,-3.7296,-3.7374,-3.7426,-3.7416,-3.7584,-3.7586,-3.7614,-3.763,-3.7677,-3.7716,-3.7733,0,0,-3.7183,-3.7178,-3.723,-3.7207,-3.7314,-3.7286,-3.7399,-3.7453,-3.7465,-3.7546,-3.755,-3.7619,-3.7633,-3.7679,-3.783,-3.7842,0,0,0,-3.7256,-3.7292,-3.7322,-3.7371,-3.7415,-3.7453,-3.7491,-3.7512,-3.7581,-3.7505,-3.7649,-3.7658,-3.7685,-3.7704,-3.7715,-3.7739,-3.7596,-3.7595,-3.7595,-3.7372,-3.7383,-3.7469,-3.7493,-3.7541,-3.758,-3.7619,-3.7653,-3.7651,-3.7685,-3.7708,-3.7798,-3.782,-3.7828,-3.7853,-3.7732,-3.7732,-3.7732,-3.7732,-3.7503,-3.7556,-3.7552,-3.7632,-3.7644,-3.7712,-3.7753,-3.7749,-3.7814,-3.7781,-3.7806,-3.7767,-3.7842,-3.7864,-3.7735,-3.7734,-3.7734,-3.7734,-3.7733,-3.7579,-3.7606,-3.763,-3.7702,-3.7756,-3.7779,-3.7842,-3.7851,-3.7859,-3.7884,-3.7909,-3.7908,-3.7907,-3.7896,-3.7896,-3.7896,-3.7897,-3.7897,-3.7897,-3.7647,-3.7673,-3.7724,-3.7777,-3.7809,-3.7853,-3.7894,-3.7926,-3.7964,-3.7966,-3.7966,-3.7959,-3.7848,-3.7819,-3.7902,-3.7901,-3.79,-3.79,-3.79,-3.7773,-3.7746,-3.7825,-3.7858,-3.792,-3.7973,-3.7984,-3.805,-3.8078,-3.8108,-3.8098,-3.8014,-3.801,-3.8001,-3.7976,-3.8096,-3.8096,-3.8096,-3.8096,-3.7835,-3.7834,-3.7917,-3.7968,-3.802,-3.8038,-3.8127,-3.816,-3.8189,-3.8207,-3.8192,-3.8161,-3.8152,-3.8152,-3.8141,-3.8118,-3.827,-3.827,-3.827,-3.7912,-3.7917,-3.799,-3.8018,-3.8068,-3.811,-3.8194,-3.8253,-3.8281,-3.8278,-3.8221,-3.8214,-3.8164,-3.8148,-3.814,-3.8122,-3.808,0,0]},{"header":{"parameterUnit":"m.s-1","parameterCategory":1,"la1":30.2992,"la2":30.254,"lo1":-89.0895,"lo2":-89.0443,"dy":0.0025,"dx":0.0025,"nx":19,"ny":19,"refTime":"2026-04-23T03:00:00:Z","depth":0,"parameterNumber":3,"parameterNumberName":"V-component_of_WINDS"},"data":[0,0,0,5.3971,5.3973,5.4028,5.4028,5.4113,5.4114,0,0,0,0,0,0,0,0,0,0,0,5.3964,5.3965,5.3971,5.3973,5.4028,5.4028,5.4113,5.4114,0,0,0,0,0,0,0,0,0,0,0,5.3964,5.3965,5.3966,5.3973,5.4028,5.4028,5.4112,5.4065,0,0,0,0,0,0,0,0,0,0,5.4009,5.4012,5.3965,5.3966,5.3973,5.4028,5.4028,5.4063,5.4068,5.4094,0,5.4121,0,5.4119,5.412,5.4121,0,0,0,5.3965,5.4008,5.4015,5.3966,5.3974,5.4028,5.4001,5.4066,5.4072,5.4101,5.4122,5.4124,5.412,5.4121,5.4121,5.4299,5.43,0,0,5.3962,5.3979,5.401,5.4019,5.4013,5.3999,5.4003,5.4069,5.4092,5.4122,5.4126,5.4122,5.4122,5.4122,5.4298,5.4299,0,0,0,5.3958,5.3977,5.3982,5.4016,5.4025,5.4001,5.4005,5.4089,5.4089,5.4127,5.4123,5.4122,5.4123,5.4297,5.4298,5.4373,0,0,0,5.3956,5.3975,5.3981,5.3992,5.4024,5.4058,5.4024,5.4085,5.4091,5.4122,5.4122,5.4124,5.4295,5.4298,5.4369,5.4405,0,0,0,5.3957,5.3975,5.3987,5.3993,5.4017,5.4057,5.406,5.4086,5.4089,5.4121,5.4125,5.4294,5.4297,5.4364,5.4398,5.4456,0,0,0,5.3963,5.4052,5.3988,5.4086,5.4017,5.4104,5.406,5.4123,5.4159,5.4123,5.4295,5.4298,5.4363,5.4393,5.4451,5.4507,5.4532,0,0,5.4084,5.4067,5.4123,5.4068,5.417,5.4094,5.4207,5.4223,5.421,5.427,5.4274,5.437,5.4397,5.4455,5.4671,5.4691,0,0,0,5.4167,5.4208,5.4231,5.4267,5.4284,5.4299,5.4297,5.4303,5.4354,5.4245,5.4407,5.4423,5.4456,5.4481,5.4499,5.4525,5.4311,5.4311,5.4311,5.4361,5.4341,5.4433,5.442,5.4456,5.4454,5.448,5.4487,5.4456,5.4495,5.4511,5.4645,5.4676,5.4689,5.4717,5.4541,5.4541,5.4542,5.4542,5.4535,5.4588,5.4547,5.462,5.4599,5.4659,5.4661,5.4637,5.469,5.4631,5.4659,5.4594,5.4711,5.4735,5.4547,5.4546,5.4546,5.4545,5.4545,5.4658,5.468,5.4688,5.4739,5.478,5.4765,5.4818,5.4796,5.4776,5.4804,5.4818,5.4817,5.4811,5.4813,5.4814,5.4814,5.4814,5.4815,5.4815,5.4781,5.4787,5.4835,5.4862,5.4883,5.4907,5.4908,5.4927,5.4943,5.4922,5.4922,5.4886,5.4728,5.4687,5.4822,5.4821,5.482,5.4819,5.4819,5.496,5.4917,5.4991,5.5013,5.5042,5.5084,5.5058,5.5099,5.5112,5.5139,5.5098,5.4985,5.4965,5.4951,5.4917,5.5103,5.5103,5.5103,5.5103,5.5062,5.5051,5.5122,5.5158,5.519,5.5174,5.5258,5.5259,5.5253,5.526,5.5231,5.5185,5.5172,5.5159,5.5141,5.5108,5.5339,5.5339,5.534,5.5171,5.5162,5.5237,5.5234,5.5255,5.5274,5.5352,5.5393,5.5377,5.5349,5.5264,5.5254,5.518,5.5157,5.5124,5.5096,5.5036,0,0]}]]